Miscellaneous Local Product
Issued by NWS North Platte, NE

Home | Current Version | Previous Version | Text Only | Print | Product List | Glossary On
Versions: 1 2 3 4 5 6 7 8 9 10 11 12 13 14 15 16 17 18 19 20 21 22 23 24 25 26 27 28 29 30 31 32 33 34 35 36 37 38 39 40 41 42 43 44 45 46 47 48 49 50
899
AXUS43 KLBF 310010
MISLBF


WESTERN AND NORTH CENTRAL NEBRASKA HOURLY WEATHER ROUNDUP
NATIONAL WEATHER SERVICE NORTH PLATTE NE
700 PM CDT TUE AUG 30 2016

NOTE: "FAIR" INDICATES FEW OR NO CLOUDS BELOW 12,000 FEET WITH NO
SIGNIFICANT WEATHER AND/OR OBSTRUCTIONS TO VISIBILITY.

NOTE: STATIONS NOT REPORTING VARIABLES SUCH AS SKY/WEATHER OR
PRESSURE ARE PROVIDED BY RAWS AND APRS NETWORKS AND ARE NOT UNDER
NATIONAL WEATHER SERVICE QUALITY CONTROL.

...OBSERVATIONS IN AND NEAR THE EASTERN PANHANDLE OF NEBRASKA...

CITY           SKY/WX    TMP DP  RH WIND       PRES   REMARKS
PINE RIDGE     SUNNY     84  55  36 E9        30.18S
CHADRON        MOSUNNY   87  49  26 SE10      30.16S
ALLIANCE       PTSUNNY   78  58  49 SE22G33   30.22R
SIDNEY         SUNNY     76  59  55 E10       30.26F
$$

...OBSERVATIONS IN NORTHERN NEBRASKA AND FAR SOUTHERN SOUTH DAKOTA...

CITY           SKY/WX    TMP DP  RH WIND       PRES   REMARKS
WINNER         FAIR      87  63  44 E10       30.16R
VALENTINE      CLOUDY    86  55  34 E9        30.16R
THEDFORD       MOSUNNY   81  59  47 SE8       30.19F
AINSWORTH      SUNNY     78  65  65 SE7       30.18S
O`NEILL        MOSUNNY   82  64  54 SE8       30.17S
ORD            CLOUDY    77  66  68 E3        30.16S
BROKEN BOW     CLOUDY    74  66  76 CALM      30.19S
VALENTINE NWR    N/A     80  60  49 S5G15       N/A
BUTTE            N/A     82  66  57 SE5G12      N/A
HALSEY           N/A     83  59  43 SE7G14      N/A
EWING            N/A     77  71  83 CALM        N/A
$$

...OBSERVATIONS IN SOUTHWEST NEBRASKA AND FAR NORTHEAST COLORADO...

CITY           SKY/WX    TMP DP  RH WIND       PRES   REMARKS
WRAY           FAIR      70  63  78 E6        30.23
HOLYOKE        FAIR      73  59  60 SE10      30.23F
IMPERIAL       CLOUDY    73  61  65 SE8       30.22R
OGALLALA       MOSUNNY   76  61  58 SE7       30.21R
NORTH PLATTE   CLOUDY    76  64  66 SE8       30.20S
MCCOOK         CLOUDY    73  65  75 E8        30.19R
LEXINGTON      PTSUNNY   74  65  72 CALM      30.19S
STAPLETON        N/A     78  65  63 CALM        N/A
GOTHENBURG       N/A     74  62  66 E3          N/A
CALLAWAY         N/A     72  68  87 S3          N/A
$$

...OBSERVATIONS IN CENTRAL LINCOLN COUNTY AREA...

CITY           SKY/WX    TMP DP  RH WIND       PRES   REMARKS
N.P. AIRPORT   CLOUDY    76  64  66 SE8       30.20S
N.P. DOWNTOWN    N/A     76  65  67 CALM        N/A
N.P. SOUTHEAST   N/A     75  64  70 SE3         N/A
N.P. HILLCREST   N/A     75  64  69 SE7         N/A
$$

...SOME OBSERVATIONS FROM AROUND THE REGION...

CITY           SKY/WX    TMP DP  RH WIND       PRES   REMARKS
DENVER         PTSUNNY   77  49  37 NE16      30.25F
LARAMIE        SUNNY     71  41  33 E10       30.36S
CHEYENNE       CLOUDY    70  51  51 SE6       30.33S
SCOTTSBLUFF    MOSUNNY   82  52  35 SE8       30.21S
RAPID CITY     CLOUDY    79  62  56 SE6       30.17F
BISMARCK       SUNNY     81  51  35 SE7       30.17R
PIERRE         CLOUDY    76  60  57 N14       30.14R THUNDER
SIOUX FALLS    CLOUDY    79  66  64 NE9       30.16F
OMAHA          PTSUNNY   77  70  79 N3        30.13F
GRAND ISLAND   CLOUDY    74  67  78 E6        30.17S
KANSAS CITY    MOCLDY    82  70  66 NE8       30.09S
WICHITA        CLOUDY    78  68  71 N13       30.10R
OKLAHOMA CITY  PTSUNNY   90  63  40 E7        30.02S HX  91
DALLAS         PTSUNNY   90  69  50 NE6       29.94S HX  94
AMARILLO       PTSUNNY   71  64  78 N5        30.21S
DODGE CITY     CLOUDY    73  69  87 NE3       30.17S
HAYS           CLOUDY    72  61  68 E13       30.16R
GOODLAND       PTSUNNY   76  61  59 SE8       30.21S
$$




USA.gov is the U.S. government's official web portal to all federal, state and local government web resources and services.